Weather History for MRLB - March, 2013

Change the Weather History Date:

Thursday, March 14, 2013

  Actual Average Record
Temperature  
Mean Temperature 86 °F -  
Max Temperature 93 °F 92 °F 98 °F (2003)
Min Temperature 78 °F 75 °F 66 °F (2006)
Cooling Degree Days 20    
Growing Degree Days 36 (Base 50)    
Moisture  
Dew Point 61 °F    
Average Humidity 43    
Maximum Humidity 57    
Minimum Humidity 27    
Precipitation  
Precipitation 0.00 in - - ()
Sea Level Pressure  
Sea Level Pressure 29.81 in    
Wind  
Wind Speed 17 mph ()    
Max Wind Speed 30 mph    
Max Gust Speed 41 mph    
Visibility 12.0 miles    
Events      
Averages and records for this station are not official NWS values.
T = Trace of Precipitation, MM = Missing Value Source: Averaged Metar Reports

Daily Weather History Graph

Daily Weather History Graph

Search for Another Location

Airport or City:

Trip Planner

Search our weather history database for the weather conditions in past years. The results will help you decide how hot, cold, wet, or windy it might be!

Date:

Astronomy

Mar. 14, 2013 Rise Set
Actual Time 5:49 AM CST 5:52 PM CST
Civil Twilight 5:28 AM CST 6:13 PM CST
Nautical Twilight 5:04 AM CST 6:38 PM CST
Astronomical Twilight 4:39 AM CST 7:02 PM CST
Moon 7:41 AM CST (3/14) 8:24 PM CST (3/14)
Length of Visible Light 12h 45m
Length of Day
12h 03m
Waxing Crescent, 9% of the Moon is Illuminated
Mar 14
Waxing Crescent
Mar 19
First Quarter
Mar 27
Full
Apr 2
Last Quarter
Apr 10
New

Hourly Weather History & Observations

Time (CST) Temp. Heat Index Dew Point Humidity Pressure Visibility Wind Dir Wind Speed Gust Speed Precip Events Conditions
6:00 AM 78.8 °F - 62.6 °F 57% 29.83 in - East 13.8 mph - N/A   Clear
7:00 AM 82.4 °F 82.9 °F 60.8 °F 48% 29.85 in - East 3.5 mph - N/A   Clear
8:00 AM 86.0 °F 85.4 °F 59.0 °F 40% 29.86 in - ENE 11.5 mph - N/A   Clear
9:00 AM 87.8 °F 86.5 °F 57.2 °F 35% 29.86 in - ENE 20.7 mph - N/A   Clear
10:00 AM 89.6 °F 89.5 °F 60.8 °F 38% 29.84 in - ENE 25.3 mph - N/A   Clear
11:00 AM 91.4 °F 90.7 °F 59.0 °F 34% 29.83 in - ENE 26.5 mph - N/A   Clear
12:00 PM 91.4 °F 90.7 °F 59.0 °F 34% 29.80 in - East 23.0 mph - N/A   Clear
1:00 PM 91.4 °F 92.1 °F 62.6 °F 38% 29.78 in - East 25.3 mph - N/A   Clear
2:00 PM 91.4 °F 90.7 °F 59.0 °F 34% 29.76 in - ENE 28.8 mph 40.3 mph N/A   Clear
3:00 PM 91 °F - 62 °F 27% 29.76 in 12 mi ENE 24.2 mph - -   Clear
3:00 PM 91.4 °F 91.4 °F 60.8 °F 36% 29.75 in - ENE 24.2 mph 35.7 mph N/A   Clear
4:00 PM 87.8 °F 87.6 °F 60.8 °F 40% 29.74 in - ENE 23.0 mph - N/A   Clear
5:00 PM 84.2 °F 85.0 °F 62.6 °F 48% 29.77 in - ENE 24.2 mph 35.7 mph N/A   Clear
6:00 PM 82 °F - 63 °F 43% 29.80 in 12 mi ENE 21.9 mph - -   Clear
6:00 PM 82.4 °F 83.4 °F 62.6 °F 51% 29.78 in - ENE 21.9 mph 33.4 mph N/A   Clear
7:00 PM 80.6 °F 81.5 °F 60.8 °F 51% 29.81 in - ENE 21.9 mph 33.4 mph N/A   Clear
8:00 PM 80.6 °F 81.5 °F 60.8 °F 51% 29.84 in - ENE 26.5 mph 39.1 mph N/A   Clear
9:00 PM 80.6 °F 81.5 °F 60.8 °F 51% 29.85 in - ENE 29.9 mph 41.4 mph N/A   Clear
10:00 PM 78.8 °F - 60.8 °F 54% 29.86 in - ENE 24.2 mph 35.7 mph N/A   Clear